VK8HF Weather Reports


time (UTC)temp
F
wind
direction
speed
knots
gust
knots
rain 1hr
in
rain 24hr
in
rain mn
in
humidity
%
barometer
mb
20260509201626 73 267 0.9 5.2 0.00 0.00 0.00 74 1011.3
20260509200108 73 276 0.9 3.5 0.00 0.00 0.00 74 1011.2
20260509194559 74 255 0.0 2.6 0.00 0.00 0.00 74 1011.1
20260509193131 74 254 0.0 3.5 0.00 0.00 0.00 73 1011.0
20260509191614 74 279 0.0 3.5 0.00 0.00 0.00 73 1011.0
20260509190059 74 278 0.0 3.5 0.00 0.00 0.00 73 1011.1
20260509184601 74 268 0.0 3.5 0.00 0.00 0.00 73 1011.1
20260509183058 75 209 0.0 2.6 0.00 0.00 0.00 72 1011.1
20260509181601 75 246 1.7 4.3 0.00 0.00 0.00 72 1011.1
20260509180105 75 256 1.7 6.1 0.00 0.00 0.00 72 1011.1
20260509174555 75 270 0.9 4.3 0.00 0.00 0.00 72 1011.2
20260509173102 74 272 0.9 5.2 0.00 0.00 0.00 73 1011.3
20260509171554 75 230 0.9 4.3 0.00 0.00 0.00 73 1011.4
20260509170058 75 216 0.0 4.3 0.00 0.00 0.00 72 1011.5
20260509164602 75 241 0.9 5.2 0.00 0.00 0.00 72 1011.5
20260509163052 75 268 1.7 5.2 0.00 0.00 0.00 73 1011.5
20260509161557 75 240 0.0 2.6 0.00 0.00 0.00 73 1011.7
20260509160052 75 181 0.9 4.3 0.00 0.00 0.00 73 1011.9
20260509154551 75 214 0.0 2.6 0.00 0.00 0.00 72 1011.9
20260509153051 76 204 0.0 4.3 0.00 0.00 0.00 71 1012.0
20260509151550 76 243 0.9 5.2 0.00 0.00 0.00 71 1012.0
20260509150050 76 185 1.7 5.2 0.00 0.00 0.00 70 1012.1
20260509144551 77 258 0.0 5.2 0.00 0.00 0.00 71 1012.3
20260509143051 77 269 0.9 5.2 0.00 0.00 0.00 71 1012.3
20260509141550 77 266 1.7 4.3 0.00 0.00 0.00 71 1012.4
20260509140049 77 240 0.0 3.5 0.00 0.00 0.00 72 1012.3
20260509134550 78 277 1.7 3.5 0.00 0.00 0.00 72 1012.4
20260509133050 78 269 1.7 4.3 0.00 0.00 0.00 71 1012.4
20260509131551 78 268 0.9 3.5 0.00 0.00 0.00 70 1012.4
20260509130059 79 282 0.0 2.6 0.00 0.00 0.00 69 1012.6
20260509124549 79 279 0.0 3.5 0.00 0.00 0.00 69 1012.6
20260509123051 79 273 0.9 4.3 0.00 0.00 0.00 69 1012.4
20260509121546 80 278 0.9 3.5 0.00 0.00 0.00 68 1012.5
20260509120051 80 277 0.9 2.6 0.00 0.00 0.00 68 1012.3
20260509114548 80 204 0.9 3.5 0.00 0.00 0.00 69 1012.2
20260509113048 80 254 0.0 3.5 0.00 0.00 0.00 70 1012.1
20260509111547 80 275 0.9 4.3 0.00 0.00 0.00 71 1012.0
20260509110046 78 266 0.0 1.7 0.00 0.00 0.00 74 1011.8
20260509104545 77 206 0.0 0.0 0.00 0.00 0.00 78 1011.7
20260509103043 78 206 0.0 0.0 0.00 0.00 0.00 75 1011.6
20260509101543 79 206 0.0 0.9 0.00 0.00 0.00 73 1011.4
20260509100042 79 206 0.0 0.0 0.00 0.00 0.00 74 1011.2
20260509094539 80 206 0.0 0.9 0.00 0.00 0.00 74 1011.2
20260509093039 81 206 0.0 0.0 0.00 0.00 0.00 73 1011.0
20260509091538 83 205 0.0 0.0 0.00 0.00 0.00 70 1010.9
20260509090037 84 205 0.0 0.9 0.00 0.00 0.00 66 1010.7
20260509084540 85 256 0.0 1.7 0.00 0.00 0.00 64 1010.4
20260509083041 85 241 0.0 5.2 0.00 0.00 0.00 62 1010.3
20260509081543 86 221 0.0 3.5 0.00 0.00 0.00 60 1010.1
20260509080041 87 206 0.0 4.3 0.00 0.00 0.00 58 1010.0
20260509074537 88 266 0.9 5.2 0.00 0.00 0.00 58 1009.8
20260509073036 89 213 1.7 5.2 0.00 0.00 0.00 56 1009.6
20260509071535 89 216 0.0 5.2 0.00 0.00 0.00 57 1009.5
20260509070035 88 212 0.9 6.1 0.00 0.00 0.00 57 1009.5
20260509064535 89 213 1.7 4.3 0.00 0.00 0.00 56 1009.4
20260509063033 89 220 2.6 7.0 0.00 0.00 0.00 55 1009.4
20260509061533 89 209 3.5 7.0 0.00 0.00 0.00 54 1009.4
20260509060032 89 199 0.9 9.6 0.00 0.00 0.00 54 1009.4
20260509054531 89 222 1.7 7.0 0.00 0.00 0.00 55 1009.4
20260509053031 88 194 3.5 9.6 0.00 0.00 0.00 55 1009.6
20260509051528 89 176 2.6 7.0 0.00 0.00 0.00 54 1009.7
20260509050036 89 180 1.7 7.8 0.00 0.00 0.00 53 1009.9
20260509044522 89 220 2.6 8.7 0.00 0.00 0.00 52 1010.1
20260509043020 89 176 0.9 6.1 0.00 0.00 0.00 55 1010.2
20260509041517 87 210 1.7 8.7 0.00 0.00 0.00 55 1010.4
20260509040014 87 215 2.6 9.6 0.00 0.00 0.00 56 1010.6
20260509034515 87 225 0.9 7.0 0.00 0.00 0.00 55 1010.7
20260509033013 87 223 3.5 7.0 0.00 0.00 0.00 58 1010.9
20260509031515 86 202 2.6 7.8 0.00 0.00 0.00 58 1011.1
20260509030107 85 190 3.5 10.4 0.00 0.00 0.00 58 1011.3
20260509024510 84 254 2.6 9.6 0.00 0.00 0.00 61 1011.4
20260509023007 84 194 2.6 8.7 0.00 0.00 0.00 61 1011.7
20260509021502 82 268 3.5 10.4 0.00 0.00 0.00 63 1012.0
20260509020100 83 230 5.2 11.3 0.00 0.00 0.00 61 1012.3
20260509014554 82 197 3.5 9.6 0.00 0.00 0.00 64 1012.7
20260509013058 81 180 4.3 12.2 0.00 0.00 0.00 64 1012.8
20260509011549 81 227 4.3 9.6 0.00 0.00 0.00 65 1012.9
20260509010048 81 219 6.1 13.0 0.00 0.00 0.00 63 1012.9
20260509004545 80 218 7.0 12.2 0.00 0.00 0.00 64 1013.0
20260509003056 78 232 3.5 9.6 0.00 0.00 0.00 64 1013.0
20260509001538 78 171 2.6 7.8 0.00 0.00 0.00 65 1013.1
20260509000041 77 261 4.3 10.4 0.00 0.00 0.00 65 1013.2
20260508234537 76 262 4.3 10.4 0.00 0.00 0.00 67 1013.3
20260508233029 75 234 4.3 10.4 0.00 0.00 0.00 67 1013.2
20260508231525 74 261 3.5 9.6 0.00 0.00 0.00 69 1013.0
20260508230021 73 301 1.7 8.7 0.00 0.00 0.00 70 1013.0
20260508224520 72 211 1.7 7.0 0.00 0.00 0.00 71 1012.8
20260508223024 72 242 1.7 7.0 0.00 0.00 0.00 72 1012.6
20260508221520 72 197 1.7 7.0 0.00 0.00 0.00 71 1012.4
20260508220019 71 260 0.9 7.0 0.00 0.00 0.00 72 1012.2
20260508214519 71 287 1.7 7.0 0.00 0.00 0.00 73 1012.0
20260508213023 70 254 1.7 5.2 0.00 0.00 0.00 74 1011.8
20260508211518 70 253 2.6 7.0 0.00 0.00 0.00 74 1011.7
20260508210018 70 260 0.9 4.3 0.00 0.00 0.00 74 1011.7
20260508204517 71 249 0.0 2.6 0.00 0.00 0.00 74 1011.5
20260508203017 71 264 0.0 4.3 0.00 0.00 0.00 74 1011.3